Location: Helion Bumpstead
(52.0500°N, 0.4000°E)
Time: 21:26:41
(UTC+00:00)

Cosmos 1452 Rocket - Pass Details

Date: 15 November 2025
Orbit: 763 x 770 km, 74.1° (Epoch: 06 December)

Event Time Altitude Azimuth Distance (km) Brightness Sun altitude
Rises 06:30:47 0° 214° (SW) 3,218 6.6 -7.5°
Reaches altitude 10° 06:33:11 10° 217° (SW) 2,296 5.8 -7.1°
Maximum altitude 06:38:20 63° 299° (WNW) 856 3.5 -6.4°
Drops below altitude 10° 06:43:33 10° 21° (NNE) 2,312 6.0 -5.7°
Sets 06:45:58 0° 24° (NNE) 3,243 6.8 -5.3°
